#timestamp,LO_Frequency,Hit,StdDev 
1569412815.6,286046999.7,N
1569412835.4,286047000.4,N
1569412855.2,286047000.8,N
1569412875.1,286047000.5,N
1569412876.0,286047000.5,N
1569412895.8,286047000.6,N
1569412915.7,286047000.4,N
1569412935.5,286047001.0,N
1569412955.3,286047000.4,N
1569412975.2,286047000.1,N
1569412995.0,286047000.4,N
1569412995.9,286047000.4,N
1569413015.8,286047000.4,N
1569413035.6,286046998.4,N
1569413055.4,286046999.3,N
1569413075.3,286046999.6,N
1569413095.1,286046999.6,N
1569413115.8,286046998.9,N
1569413135.7,286046999.6,N
1569413155.5,286046997.0,Y
1569413175.4,286046996.6,P
1569413195.2,286046996.5,N
1569413215.0,286046996.6,N
1569413216.0,286046996.6,N
1569413235.8,286046996.9,N
1569413255.6,286046999.2,N
1569413275.5,286046999.0,N
1569413295.3,286046999.6,N
1569413315.1,286047000.9,N
1569413335.9,286046998.2,N
1569413355.7,286047011.9,Y
1569413375.6,286047002.5,P
1569413395.4,286047001.5,N
1569413415.2,286047000.1,N
1569413435.1,286047002.4,N
1569413436.0,286047002.4,N
1569413455.8,286047000.4,N
1569413475.7,286047002.4,N
1569413495.5,286047004.1,N
1569413515.3,286047004.1,N
1569413535.2,286047002.1,N
1569413555.0,286047000.8,N
1569413555.9,286047000.8,N
1569413575.7,286047002.8,N
1569413595.6,286047001.9,N
1569413615.4,286047004.4,N
1569413635.3,286047004.3,N
1569413655.1,286047004.2,N
1569413656.0,286047004.2,N
1569413675.8,286047002.4,N
1569413695.7,286047001.0,N
1569413715.5,286047002.4,N
1569413735.3,286047002.7,N
1569413755.2,286046999.7,N
1569413775.0,286047000.5,N
1569413775.9,286047000.5,N
1569413795.8,286047001.0,N
1569413815.6,286047002.7,N
1569413835.4,286047001.8,N
1569413855.3,286047001.4,N
1569413875.1,286047004.1,N
1569413895.9,286047004.3,Y
1569413915.7,286047000.3,P
1569413935.5,286047000.2,N
1569413955.4,286047000.6,N
1569413975.2,286047000.6,N
1569413995.0,286047000.3,N
1569413995.9,286047000.3,N
1569414015.8,286047002.0,Y
1569414035.6,286047001.7,P
1569414055.5,286047002.5,P
1569414075.3,286047002.7,P
1569414095.1,286046998.2,N
1569414115.9,286047001.1,N
1569414135.7,286046998.6,N
1569414155.6,286046998.6,N
1569414175.4,286047000.8,N
1569414195.2,286047001.0,N
1569414215.1,286046998.1,N
1569414216.0,286046998.1,N
1569414235.8,286046998.4,N
1569414255.6,286046998.8,N
1569414275.5,286046998.1,N
1569414295.3,286046999.1,N
1569414315.2,286047000.8,N
1569414335.1,286046998.5,N
1569414336.0,286046998.5,N
1569414355.8,286046999.4,N
1569414375.7,286046999.2,N
1569414395.5,286046998.1,N
1569414415.3,286046996.5,N
1569414435.2,286046999.2,N
1569414455.0,286046999.2,N
1569414455.9,286046999.2,N
1569414475.7,286047000.8,N
1569414495.6,286046999.0,N
1569414515.4,286046996.6,N
1569414535.3,286046999.0,N
1569414555.1,286047001.2,N
1569414575.8,286047000.5,N
1569414595.7,286047000.1,N
1569414615.5,286046999.8,N
1569414635.4,286047000.3,N
1569414655.2,286047000.1,N
1569414675.0,286047002.1,N
1569414675.9,286047002.1,N
1569414695.8,286047002.2,N
1569414715.6,286047000.3,N
1569414735.4,286046998.6,N
1569414755.3,286046998.3,N
1569414775.1,286047000.0,N
1569414795.9,286046998.2,N
1569414815.7,286046998.8,N
1569414835.5,286047001.2,N
1569414855.4,286046998.2,N
1569414875.2,286046998.3,N
1569414895.0,286046999.1,N
1569414896.0,286046999.1,N
1569414915.8,286046996.6,N
1569414935.6,286046996.5,N
1569414955.5,286046999.2,N
1569414975.3,286046998.8,N
1569414995.1,286046998.1,N
1569415015.9,286046998.2,N
1569415035.7,286046998.6,N
1569415055.6,286046998.9,N
1569415075.4,286046999.4,N
1569415095.2,286046998.7,N
1569415115.1,286046998.8,N
1569415116.0,286046998.8,N
1569415135.8,286046997.0,N
1569415155.6,286046999.5,N
1569415175.5,286046998.7,N
1569415195.3,286046998.2,N
1569415215.2,286047001.2,N
1569415235.9,286047000.9,N
1569415255.7,286046999.8,N
1569415275.6,286047001.9,N
1569415295.4,286047004.0,Y
1569415315.3,286047003.0,P
1569415335.1,286047005.5,N
1569415336.0,286047005.5,N
1569415355.8,286047004.0,N
1569415375.7,286047003.9,N
1569415395.5,286047004.1,N
1569415415.4,286047003.4,N
1569415435.2,286047003.8,N
1569415455.0,286047003.2,N
1569415455.9,286047003.2,N
1569415475.8,286047003.1,N
1569415495.6,286047005.5,Y
1569415515.5,286047002.3,P
1569415535.3,286047001.5,N
1569415555.1,286047000.0,N
1569415575.9,286047000.1,N
1569415595.7,286047001.4,N
1569415615.5,286047002.0,N
1569415635.4,286047002.5,N
1569415655.2,286047002.7,N
1569415675.1,286047000.6,N
1569415676.0,286047000.6,N
1569415695.8,286047000.9,N
1569415715.6,286046999.8,N
1569415735.5,286047000.4,N
1569415755.3,286046998.7,N
1569415775.2,286046998.7,N
1569415795.9,286046998.1,N
1569415815.7,286046999.0,N
1569415835.6,286046999.3,N
1569415855.4,286046999.1,N
1569415875.2,286046999.6,N
1569415895.1,286046997.2,N
1569415896.0,286046997.2,N
1569415915.8,286046996.6,N
1569415935.7,286046999.5,N
1569415955.5,286046999.0,N
1569415975.3,286046996.9,N
1569415995.2,286046999.2,N
1569416015.0,286046999.2,N
1569416015.9,286046999.2,N
1569416035.8,286046996.9,N
1569416055.6,286046995.2,N
1569416075.4,286046995.4,N
1569416095.3,286046995.0,N
1569416115.1,286046997.6,N
1569416135.9,286046997.5,N
1569416155.7,286046997.1,N
1569416175.5,286046997.1,N
1569416195.4,286046996.9,N
1569416215.2,286046996.7,N
1569416235.0,286046996.7,N
1569416236.0,286046996.7,N
1569416255.8,286046997.2,N
1569416275.6,286046995.0,Y
1569416295.5,286046999.5,P
1569416315.3,286046998.7,N
1569416335.1,286047001.2,N
1569416355.9,286047000.8,N
1569416375.7,286046996.9,N
1569416395.6,286046996.7,N
